{"data":{"norad_id":60288,"epoch":"2026-05-25T03:56:30.227136Z","epoch_age_seconds":54757,"freshness":"FRESH","line1":"1 60288U 24132L   26145.16423874  .00001054  00000+0  47710-4 0  9991","line2":"2 60288  53.1612  56.8792 0001301  85.1784 274.9365 15.30195213103278","mean_motion":15.30195213,"eccentricity":0.0001301,"inclination_deg":53.1612,"raan_deg":56.8792,"arg_perigee_deg":85.1784,"mean_anomaly_deg":274.9365,"bstar":4.771e-5,"rev_number":10327,"period_min":94.105640101751,"perigee_km":474.33773961195,"apogee_km":476.12098553949,"semimajor_km":6853.3663625757,"source":"CELESTRAK","updated_at":"2026-05-25T13:38:19.205591Z"}}